Location: Unspecified
(35.6961°N, 0.0000°E)
Time: 23:19:56
(UTC+00:00)

Tiros 1 - All Passes

Search period start: 26 May 2019 00:00
Search period end: 05 June 2019 00:00
Orbit: 630 x 664 km, 48.4° (Epoch: 26 May)

Date Brightness Start Highest point End Pass type
(mag) Time Alt. Az. Time Alt. Az. Time Alt. Az.
26 May - 08:05:03 10° SSW 08:09:13 34° SE 08:13:25 10° ENE daylight
26 May - 09:46:53 10° WSW 09:51:19 44° NNW 09:55:48 10° NE daylight
26 May - 11:31:08 10° NW 11:34:26 19° N 11:37:45 10° NE daylight
26 May - 13:14:34 10° NW 13:17:59 19° NNE 13:21:26 10° ENE daylight
26 May - 14:56:26 10° NW 15:01:02 49° NNE 15:05:40 10° ESE daylight
26 May - 16:38:56 10° WNW 16:43:06 31° SW 16:47:16 10° SSE daylight
27 May - 06:51:38 10° SSE 06:53:33 12° SE 06:55:28 10° ESE daylight
27 May - 08:30:32 10° SW 08:35:08 83° SE 08:39:49 10° NE daylight
27 May - 10:13:51 10° WNW 10:17:45 26° NNW 10:21:41 10° NE daylight
27 May - 11:58:08 10° NW 12:01:11 17° N 12:04:15 10° NE daylight
27 May - 13:40:35 10° NW 13:44:36 27° NNE 13:48:39 10° E daylight
27 May - 15:22:27 10° NW 15:27:12 79° SW 15:31:58 10° SE daylight
27 May - 17:06:53 10° WSW 17:08:48 12° SW 17:10:45 10° SSW daylight
28 May - 07:15:12 10° SSW 07:19:16 31° SE 07:23:21 10° ENE daylight
28 May - 08:56:51 10° WSW 09:01:19 47° NNW 09:05:49 10° NE daylight
28 May - 10:41:04 10° WNW 10:44:23 19° N 10:47:44 10° NE daylight
28 May - 12:24:35 10° NW 12:27:56 19° N 12:31:18 10° ENE daylight
28 May - 14:06:29 10° NW 14:11:01 46° NNE 14:15:36 10° ESE daylight
28 May - 15:48:52 10° WNW 15:53:08 33° SW 15:57:24 10° SSE daylight
29 May - 06:02:20 10° SE 06:03:37 11° SE 06:04:55 10° ESE daylight
29 May - 07:40:35 10° SW 07:45:10 76° SE 07:49:49 10° NE daylight
29 May - 09:23:46 10° W 09:27:43 27° NNW 09:31:43 10° NE daylight
29 May - 11:08:06 10° NW 11:11:08 17° N 11:14:11 10° NE daylight
29 May - 12:50:38 10° NW 12:54:34 26° NNE 12:58:32 10° ENE daylight
29 May - 14:32:28 10° NW 14:37:13 86° SW 14:41:58 10° SE daylight
29 May - 16:16:31 10° W 16:18:51 14° SW 16:21:13 10° SSW daylight
30 May - 06:25:22 10° SSW 06:29:19 28° SE 06:33:17 10° ENE daylight
30 May - 08:06:50 10° WSW 08:11:19 50° NNW 08:15:51 10° NE daylight
30 May - 09:50:59 10° WNW 09:54:20 19° NNW 09:57:43 10° NE daylight
30 May - 11:34:37 10° NW 11:37:53 18° N 11:41:11 10° NE daylight
30 May - 13:16:32 10° NW 13:21:01 43° NNE 13:25:32 10° E daylight
30 May - 14:58:50 10° WNW 15:03:10 36° SW 15:07:31 10° SSE daylight
31 May - 06:50:38 10° SW 06:55:12 70° SE 06:59:49 10° ENE daylight
31 May - 08:33:42 10° W 08:37:42 28° NNW 08:41:44 10° NE daylight
31 May - 10:18:04 10° NW 10:21:05 17° N 10:24:07 10° NE daylight
31 May - 12:00:41 10° NW 12:04:32 25° NNE 12:08:25 10° ENE daylight
31 May - 13:42:30 10° NW 13:47:13 88° NE 13:51:58 10° SE daylight
31 May - 15:26:14 10° W 15:28:55 15° SW 15:31:36 10° SSW daylight
01 Jun - 05:35:33 10° S 05:39:22 26° SE 05:43:12 10° ENE daylight
01 Jun - 07:16:48 10° WSW 07:21:19 54° NNW 07:25:53 10° NE daylight
01 Jun - 09:00:53 10° WNW 09:04:18 20° NNW 09:07:43 10° NE daylight
01 Jun - 10:44:38 10° NW 10:47:50 18° N 10:51:04 10° NE daylight
01 Jun - 12:26:35 10° NW 12:31:00 40° NNE 12:35:27 10° E daylight
01 Jun - 14:08:48 10° WNW 14:13:11 40° SW 14:17:37 10° SSE daylight
02 Jun - 06:00:41 10° SW 06:05:15 64° SE 06:09:49 10° ENE daylight
02 Jun - 07:43:37 10° W 07:47:41 30° NNW 07:51:46 10° NE daylight
02 Jun - 09:28:01 10° NW 09:31:02 17° N 09:34:04 10° NE daylight
02 Jun - 11:10:44 10° NW 11:14:30 24° NNE 11:18:18 10° ENE daylight
02 Jun - 12:52:32 10° NW 12:57:14 81° NE 13:01:58 10° SE daylight
02 Jun - 14:36:01 10° W 14:38:58 17° SW 14:41:56 10° S daylight
03 Jun - 04:45:45 10° S 04:49:26 24° SE 04:53:07 10° E daylight
03 Jun - 06:26:47 10° WSW 06:31:20 58° NNW 06:35:55 10° NE daylight
03 Jun - 08:10:48 10° WNW 08:14:15 20° NNW 08:17:44 10° NE daylight
03 Jun - 09:54:38 10° NW 09:57:48 18° N 10:00:57 10° NE daylight
03 Jun - 11:36:38 10° NW 11:41:00 38° NNE 11:45:22 10° E daylight
03 Jun - 13:18:47 10° WNW 13:23:14 44° SW 13:27:42 10° SSE daylight
04 Jun - 05:10:45 10° SW 05:15:17 58° SE 05:19:49 10° ENE daylight
04 Jun - 06:53:33 10° W 06:57:40 31° NNW 07:01:48 10° NE daylight
04 Jun - 08:37:57 10° NW 08:40:59 17° N 08:44:01 10° NE daylight
04 Jun - 10:20:46 10° NW 10:24:28 23° NNE 10:28:11 10° ENE daylight
04 Jun - 12:02:34 10° NW 12:07:14 75° NE 12:11:57 10° ESE daylight
04 Jun - 13:45:50 10° W 13:49:01 18° SW 13:52:13 10° S daylight
